Back to catalog

HULIANWANG DIGUI-85

AliveCommunicationsPO
NORAD 65820·PAYLOAD·🇨🇳 China

Launched Sep 27, 2025 from Taiyuan Satellite Launch Center

Loading…

Next Passes (next 24 hours)

TLE

FreshSource: Space-Track

Epoch: Sep 14, 2026, 06:55 UTC

1 65820U 25220D   26257.28870259  .00000053  00000-0  88889-4 0  9998
2 65820  86.5051  13.8295 0001543  83.8904 276.2406 13.24409853 46715

Track HULIANWANG DIGUI-85 in real time with AllMySat

Download on the App Store